Temperature
18 18 18 18 17 17 17 17 17 16 16 16 16 16 15 15 15 15 15 15 15 15 15 14 14 14 15 14 14 14 14 14 14 14 14 14 14 14 14 14 13 14 14
18 18 18 18 17 17 17 17 17 16 16 16 16 15 15 15 15 15 15 15 15 15 15 14 14 14 14 14 14 14 14 14 14 14 14 13 13 13 13 13 13 13 13
18 18 18 18 17 17 17 17 17 16 16 16 16 15 15 15 15 15 15 15 15 15 15 14 14 14 14 14 14 14 14 14 14 14 14 14 13 13 13 13 13 13 13
18 18 18 17 17 17 17 17 17 16 16 16 16 16 15 15 15 15 15 15 15 15 15 14 14 14 14 14 14 14 14 14 14 14 14 14 14 13 13 13 13 13 13
18 18 18 18 17 17 17 17 17 16 16 16 16 16 15 15 15 15 15 15 15 14 14 14 14 14 14 14 14 14 14 14 14 14 14 14 14 13 13 13 13 13 13
18 18 18 18 17 17 17 17 16 16 16 16 16 16 15 15 15 15 15 15 15 15 14 14 14 14 14 14 14 14 14 14 14 14 14 14 13 13 13 13 13 13 13
18 18 18 17 17 17 17 17 16 16 16 16 16 16 16 15 15 15 15 15 15 15 15 14 15 14 14 14 14 14 14 14 14 14 14 14 14 13 13 13 13 13 13
18 18 18 18 17 17 17 17 16 16 16 16 16 16 16 15 15 15 15 15 15 15 15 15 15 15 14 14 14 14 14 14 14 14 14 14 14 14 13 13 13 13 12
18 18 18 17 17 17 17 16 16 16 16 16 16 16 15 15 15 15 15 15 15 15 15 15 15 15 14 14 14 14 14 14 14 14 14 14 14 13 13 13 13 13 13
17 17 17 17 17 17 17 16 16 16 16 16 16 16 15 15 15 15 15 15 15 15 15 15 15 14 14 14 14 14 14 14 14 14 14 14 14 13 13 13 13 13 13
17 17 17 17 17 17 16 16 16 16 16 16 16 15 15 15 15 15 15 15 15 15 15 15 14 14 14 14 14 14 14 14 14 14 14 14 14 13 13 13 13 13 13
17 17 17 17 17 16 16 16 16 16 16 15 15 15 15 15 15 15 15 15 15 15 15 15 14 14 14 14 14 14 14 14 14 13 13 13 13 13 13 13 13 13 13
16 16 16 16 16 16 16 16 16 16 15 15 15 15 15 15 15 15 15 15 15 15 15 14 14 14 14 14 14 14 14 14 13 13 13 13 13 13 13 13 13 13 12
16 16 16 16 16 16 16 15 15 15 15 15 15 15 15 15 15 15 15 15 14 14 14 14 14 14 14 14 14 14 14 14 13 13 13 13 13 13 13 13 13 12 12
15 15 15 15 16 15 15 15 15 15 15 15 15 15 14 14 14 14 14 14 14 14 14 14 14 14 14 14 14 14 13 13 13 13 13 13 13 13 13 13 12 12 12
15 15 15 15 15 15 15 15 15 15 15 14 14 14 14 14 14 14 14 14 14 14 14 14 14 14 14 14 14 13 13 13 13 13 13 13 13 12 12 12 12 12 12
15 15 15 15 15 15 15 15 15 15 14 14 14 14 14 14 14 14 14 14 14 14 14 14 14 14 14 13 13 13 13 13 13 13 13 13 12 12 12 12 12 12 11
15 15 15 15 15 15 15 14 14 14 14 14 14 14 14 14 13 13 13 13 13 13 14 14 14 13 13 13 13 13 13 13 13 12 12 12 12 12 12 12 12 12 11
15 15 15 15 15 15 14 14 14 14 14 14 13 13 13 13 13 13 13 13 13 13 13 13 13 13 13 13 13 13 13 13 12 12 12 12 12 12 12 12 11 11 11
15 15 15 15 15 14 14 14 14 14 13 13 13 13 13 13 13 13 13 13 13 13 13 13 13 13 13 13 12 12 12 12 12 12 12 12 12 12 11 11 11 11 11
15 15 15 15 15 14 14 14 14 13 13 13 13 13 13 13 13 13 12 12 12 12 12 12 12 12 12 12 12 12 12 12 12 12 12 12 11 11 11 11 11 11 11
15 15 15 14 14 14 14 13 13 13 13 13 13 13 12 12 12 12 12 12 12 12 12 12 12 12 12 12 12 12 12 12 11 11 11 11 11 11 11 11 10 10 10
14 14 14 14 14 14 14 13 13 13 13 12 12 12 12 12 12 12 12 12 12 12 12 12 12 12 12 12 12 11 11 11 11 11 11 11 11 10 10 10 10 10 10
14 14 14 14 14 14 13 13 13 13 12 12 12 12 12 12 12 12 11 11 11 11 11 11 11 11 11 11 11 11 11 11 10 10 10 10 10 10 10 10 10 10 9
13 13 13 13 13 13 13 13 12 12 12 12 12 12 11 11 11 11 11 11 11 11 11 11 11 11 11 11 11 11 11 10 10 10 10 10 10 10 10 9 9 9 9
13 13 13 13 13 13 12 12 12 12 12 11 11 11 11 11 11 11 11 11 11 10 10 10 10 10 10 10 10 10 10 10 10 10 10 10 10 9 9 9 9 9 9
Wind_Speed
4 2 2 4 4 4 4 4 4 3 3 2 2 2 1 1 2 2 3 4 5 5 5 4 4 4 4 4 4 4 4 3 2 4 3 4 5 5 4 4 4 5 7
2 2 2 3 4 4 4 4 4 4 3 2 2 1 1 1 1 1 3 4 4 4 4 4 3 3 4 4 3 3 3 2 2 2 2 2 3 4 4 3 3 3 4
6 5 4 4 4 4 5 5 4 4 3 3 3 3 3 3 2 2 2 2 3 3 4 4 4 3 3 3 2 3 3 2 2 2 3 3 1 1 3 4 4 3 3
6 5 5 5 5 5 4 4 4 4 3 4 4 4 2 1 1 0 0 1 2 3 3 4 4 3 3 2 2 2 2 3 2 1 2 2 3 2 0 3 3 3 3
7 7 7 7 6 5 5 4 4 3 3 4 5 4 3 2 1 1 1 1 2 2 3 3 3 3 2 2 2 2 2 2 2 2 1 2 2 2 2 0 2 3 2
6 6 5 5 4 4 4 4 4 4 3 4 4 5 5 3 3 2 1 1 1 1 2 3 3 3 2 2 2 2 3 2 2 2 2 2 2 2 2 2 0 1 2
5 5 6 5 5 5 5 4 5 4 4 4 4 4 5 5 5 3 3 2 1 0 1 1 2 2 2 3 2 2 2 2 2 2 1 1 1 2 3 3 2 1 1
4 5 6 6 6 6 6 5 5 4 4 4 4 4 4 3 3 3 3 3 2 2 2 2 2 2 3 3 3 2 1 2 2 2 2 1 0 1 2 3 3 2 1
4 4 4 5 5 6 6 6 6 4 4 5 4 4 3 3 3 3 2 2 2 1 2 2 2 2 2 3 3 2 1 2 1 1 2 1 0 1 1 2 3 4 2
3 3 4 4 4 4 4 4 5 5 4 4 4 4 4 4 3 3 3 2 2 1 2 2 2 2 2 3 3 2 1 2 1 1 2 1 1 1 1 2 1 2 3
3 3 3 3 3 3 4 4 4 3 3 3 3 3 3 3 3 3 3 3 2 2 2 2 2 2 2 2 3 2 2 2 1 1 2 1 1 2 1 2 2 2 3
3 3 2 3 3 3 3 4 4 3 3 3 3 3 2 2 2 2 3 3 3 2 3 3 3 3 3 3 3 3 3 3 2 2 2 1 2 2 2 2 2 2 2
3 3 2 3 3 3 3 3 3 3 3 3 3 3 2 2 2 2 2 2 2 2 2 3 3 3 3 3 3 3 3 3 2 2 3 2 3 2 1 2 2 2 2
3 3 2 2 2 3 3 3 2 2 2 3 3 3 2 3 3 2 2 2 2 2 2 3 3 3 3 3 3 3 3 3 2 2 2 3 4 4 3 2 2 3 3
3 3 3 3 2 2 2 2 2 2 3 3 3 2 2 2 2 2 2 2 2 2 2 2 2 2 2 2 3 3 3 3 2 2 2 2 4 4 4 3 4 4 4
4 4 4 3 3 3 3 3 3 2 3 3 3 2 2 2 2 2 2 2 2 2 2 2 2 2 2 4 6 5 3 3 3 2 1 1 2 3 4 5 6 6 5
5 5 5 5 5 5 4 4 4 3 3 3 2 2 2 2 2 2 2 2 2 2 2 2 2 2 2 4 5 7 5 4 3 3 2 2 2 3 2 3 4 4 4
5 5 5 4 4 4 4 3 3 3 4 3 2 2 2 2 2 2 2 1 1 2 2 3 3 2 2 4 5 7 5 3 3 3 3 3 1 2 4 3 3 2 1
6 6 6 5 4 5 5 4 3 3 3 3 3 3 3 3 2 2 2 2 2 2 2 2 3 3 3 4 5 7 4 3 2 2 3 3 3 3 6 5 3 1 1
4 4 4 3 4 4 5 6 5 4 4 5 4 4 4 4 3 3 2 2 2 3 2 2 2 3 3 4 5 6 4 3 2 2 2 4 4 4 6 5 4 3 3
3 3 4 5 5 5 6 6 5 6 6 5 4 3 3 4 4 3 2 2 2 2 2 2 2 2 3 4 5 6 4 4 3 3 3 3 5 5 6 6 5 6 4
2 3 4 4 4 6 7 7 7 6 4 4 4 4 3 3 2 3 2 2 2 2 2 2 2 2 2 4 5 6 6 5 4 4 3 3 5 5 5 4 5 5 4
3 3 5 5 4 6 7 8 7 5 5 5 5 4 3 3 3 3 3 2 2 3 2 2 3 2 2 2 4 5 6 6 4 4 5 5 5 4 3 4 4 4 3
3 3 4 5 5 5 6 6 6 5 6 6 5 4 4 3 3 3 3 3 3 3 3 3 3 3 2 2 2 2 3 4 3 2 2 3 3 2 3 2 2 2 3
3 3 5 5 6 5 5 5 5 6 6 6 5 4 4 4 4 3 3 4 5 5 5 5 5 4 4 6 6 4 3 4 4 3 2 1 1 1 1 1 1 2 2
2 3 4 5 5 4 4 4 5 6 6 5 5 5 4 4 4 3 2 4 4 5 6 6 6 5 6 5 6 6 6 6 7 5 3 3 3 3 3 3 2 2 3
Wind_Direction
238 206 174 160 153 145 143 143 136 129 115 97 94 86 64 32 28 37 73 89 100 109 106 104 97 98 101 107 108 103 91 73 82 82 57 35 41 41 32 41 45 43 46
224 205 175 161 166 165 165 162 162 154 153 146 138 128 118 88 25 23 58 83 101 117 120 114 111 107 106 104 106 109 101 72 59 103 95 41 16 18 24 27 37 33 43
206 201 189 185 173 176 182 179 176 169 164 140 112 85 62 45 33 24 24 38 87 108 123 124 121 119 122 132 132 123 122 126 54 68 123 129 181 342 357 19 31 38 42
204 197 193 192 189 191 184 176 172 166 163 147 142 141 143 153 206 213 8 35 78 101 121 132 133 128 128 134 144 121 120 128 124 67 60 111 143 139 12 359 18 35 41
201 198 199 198 192 181 174 172 166 168 163 156 159 153 152 166 151 103 88 56 51 83 115 136 139 135 135 138 127 111 110 113 131 136 127 93 75 94 137 327 354 21 27
201 198 191 179 171 165 163 163 165 178 171 160 162 163 164 158 141 131 123 78 49 52 100 131 134 138 137 140 140 126 115 113 117 123 129 141 143 158 142 148 121 10 3
189 186 181 178 172 172 173 167 168 180 177 169 174 175 174 169 173 175 171 164 151 205 201 141 142 144 146 140 133 120 114 123 131 142 139 137 154 152 141 137 140 93 6
183 185 185 183 182 184 180 175 178 184 179 177 185 181 174 170 184 187 178 183 197 209 194 163 157 150 144 134 122 114 120 119 129 137 129 117 129 147 152 153 142 108 31
186 188 181 180 183 185 186 184 183 184 186 185 176 176 177 178 188 187 174 185 200 192 161 152 149 148 142 134 132 130 131 127 125 135 134 129 140 136 155 156 152 144 137
175 176 173 180 184 184 176 169 173 179 182 180 181 182 186 188 184 169 175 187 194 167 141 142 148 141 140 144 144 143 142 132 132 139 128 121 118 114 118 140 141 147 150
182 180 180 176 168 157 159 167 173 167 165 170 172 166 181 184 171 177 191 190 184 168 165 167 159 152 152 154 153 161 159 154 159 149 139 138 119 116 111 115 121 126 133
168 158 157 143 142 153 160 168 171 173 180 172 159 163 159 150 161 188 201 186 186 181 174 161 159 165 164 165 166 171 166 168 175 179 151 160 129 117 112 118 121 129 139
137 128 133 154 169 170 166 167 165 174 173 159 153 149 151 157 180 196 193 178 174 162 155 155 168 180 177 173 173 168 163 166 178 176 166 165 137 131 120 124 126 123 118
151 142 152 166 169 171 171 167 168 161 143 143 146 158 180 188 195 187 169 168 163 160 171 170 175 178 175 173 167 160 162 157 154 156 153 157 163 168 161 144 140 129 116
161 167 173 170 161 157 163 163 162 152 145 137 141 174 183 173 162 161 166 159 160 170 166 154 151 151 157 169 165 160 154 148 140 139 150 159 164 165 160 150 147 139 132
189 183 178 168 171 178 180 169 173 174 155 155 165 167 147 133 136 155 160 148 148 155 144 154 157 155 168 152 154 148 143 142 148 152 134 132 132 147 148 143 139 141 146
202 196 193 192 190 189 185 182 185 169 158 159 156 146 150 151 157 151 129 146 168 157 157 172 166 173 178 157 152 149 142 141 153 160 152 138 127 127 124 124 126 137 146
209 209 207 205 202 185 179 172 153 153 158 158 155 151 147 162 158 144 152 169 164 169 181 182 180 180 192 164 159 153 142 142 159 166 163 163 178 150 143 130 112 114 150
213 209 205 202 190 180 173 157 157 157 157 170 177 180 172 165 153 163 187 183 171 179 188 182 179 186 209 177 165 152 149 157 187 194 174 177 194 183 158 143 145 154 272
216 197 187 179 179 184 167 160 171 174 192 201 199 188 177 169 175 193 205 203 191 200 189 193 201 198 213 191 176 165 163 174 202 214 210 196 195 190 170 166 167 189 231
224 182 173 185 194 184 170 176 184 202 210 201 188 182 182 183 183 185 193 184 184 181 182 210 233 221 220 209 190 178 180 189 197 209 221 223 209 203 191 180 188 206 194
226 181 181 198 194 180 176 186 204 213 195 179 181 191 194 195 183 176 186 173 162 172 202 214 251 256 238 214 207 198 196 186 190 211 215 216 208 205 200 195 201 195 169
232 201 188 196 198 189 185 197 212 198 179 178 190 198 197 196 183 180 182 178 173 183 209 210 231 255 254 234 213 206 203 195 196 210 202 197 197 192 197 201 192 165 156
245 216 194 196 210 203 199 208 205 185 176 186 195 193 189 195 192 189 185 184 190 194 209 219 229 242 246 243 227 214 207 198 197 194 183 173 165 160 177 179 183 177 182
263 217 203 207 213 204 204 206 196 181 184 193 197 197 194 192 198 201 206 208 215 205 203 214 212 212 232 235 214 194 197 194 188 152 123 119 139 159 177 193 192 188 184
248 222 214 214 216 203 211 210 195 185 183 194 201 201 200 200 202 206 238 238 234 236 224 217 211 221 227 225 211 207 203 189 165 145 164 188 195 201 200 201 211 208 209
Height
1528 1529 1531 1532 1533 1535 1536 1537 1537 1538 1539 1539 1540 1540 1541 1541 1542 1542 1542 1542 1542 1542 1542 1542 1543 1543 1544 1544 1544 1544 1544 1544 1545 1545 1545 1546 1546 1546 1546 1545 1545 1545 1545
1526 1528 1529 1530 1532 1533 1535 1536 1537 1538 1539 1539 1540 1541 1541 1542 1542 1542 1543 1543 1543 1543 1543 1543 1544 1544 1544 1544 1545 1545 1545 1545 1545 1545 1545 1546 1547 1546 1546 1545 1545 1545 1545
1524 1526 1527 1529 1530 1532 1534 1535 1536 1537 1538 1539 1540 1541 1541 1542 1542 1543 1543 1543 1543 1543 1544 1544 1544 1545 1545 1545 1545 1546 1545 1545 1546 1546 1546 1546 1546 1547 1547 1545 1545 1545 1545
1521 1523 1525 1527 1529 1531 1533 1535 1536 1537 1538 1539 1539 1540 1541 1542 1542 1543 1543 1544 1544 1544 1544 1544 1545 1545 1546 1546 1546 1546 1546 1546 1546 1546 1546 1547 1547 1547 1546 1546 1545 1545 1545
1519 1521 1523 1525 1527 1529 1531 1533 1535 1536 1537 1538 1539 1540 1541 1542 1543 1543 1544 1544 1544 1544 1545 1545 1545 1545 1546 1546 1546 1546 1547 1547 1547 1547 1547 1546 1547 1546 1546 1546 1546 1545 1546
1516 1519 1521 1524 1526 1528 1530 1532 1534 1535 1536 1538 1538 1540 1540 1541 1542 1543 1543 1544 1544 1545 1545 1545 1545 1546 1546 1546 1547 1547 1547 1547 1547 1547 1547 1546 1546 1546 1546 1546 1545 1545 1546
1514 1516 1519 1521 1524 1526 1528 1530 1532 1534 1535 1537 1538 1539 1540 1541 1542 1543 1543 1544 1544 1545 1545 1545 1545 1546 1546 1546 1547 1547 1547 1547 1547 1547 1547 1546 1546 1546 1546 1546 1545 1545 1545
1512 1514 1516 1519 1521 1524 1526 1529 1531 1532 1534 1535 1537 1538 1539 1540 1541 1542 1543 1543 1544 1544 1545 1545 1545 1546 1546 1546 1546 1546 1546 1546 1546 1546 1546 1546 1546 1546 1546 1546 1545 1545 1545
1511 1513 1515 1517 1520 1522 1524 1527 1529 1531 1533 1534 1535 1537 1538 1539 1540 1541 1542 1543 1543 1544 1544 1545 1545 1545 1545 1546 1546 1546 1546 1546 1546 1546 1546 1545 1545 1545 1545 1545 1545 1545 1544
1510 1512 1514 1516 1518 1521 1523 1525 1527 1529 1531 1532 1534 1535 1536 1538 1539 1540 1541 1542 1542 1543 1543 1544 1544 1544 1544 1545 1545 1545 1545 1545 1545 1545 1545 1545 1545 1545 1545 1545 1544 1545 1545
1509 1511 1513 1515 1517 1519 1521 1523 1525 1527 1529 1530 1532 1533 1535 1536 1537 1539 1540 1541 1541 1542 1542 1543 1543 1543 1543 1543 1544 1544 1544 1544 1544 1544 1544 1544 1544 1544 1544 1544 1544 1544 1544
1509 1510 1512 1514 1516 1518 1520 1521 1523 1525 1527 1528 1530 1531 1533 1534 1535 1537 1538 1539 1540 1540 1541 1542 1542 1542 1542 1542 1542 1542 1543 1543 1543 1543 1543 1543 1543 1543 1543 1543 1543 1543 1543
1508 1509 1511 1512 1514 1516 1518 1520 1521 1523 1525 1527 1528 1530 1531 1532 1533 1535 1536 1537 1538 1539 1539 1540 1540 1541 1541 1541 1541 1541 1541 1541 1541 1541 1541 1541 1541 1541 1542 1542 1542 1542 1543
1507 1508 1509 1511 1512 1514 1516 1518 1520 1522 1523 1525 1526 1527 1529 1530 1532 1533 1534 1535 1536 1537 1538 1538 1539 1539 1539 1539 1540 1540 1540 1540 1540 1540 1540 1540 1540 1540 1541 1541 1541 1541 1541
1506 1507 1509 1510 1511 1513 1515 1516 1518 1520 1521 1523 1524 1525 1527 1529 1530 1531 1532 1533 1534 1535 1536 1536 1537 1537 1538 1538 1538 1538 1538 1538 1539 1539 1539 1539 1539 1539 1539 1540 1540 1540 1540
1505 1506 1508 1509 1510 1511 1513 1514 1516 1518 1519 1520 1522 1523 1525 1526 1527 1529 1530 1531 1532 1533 1533 1534 1535 1535 1535 1536 1536 1537 1537 1537 1537 1537 1537 1538 1538 1538 1538 1538 1539 1539 1539
1504 1505 1506 1507 1509 1510 1511 1513 1514 1516 1517 1518 1519 1521 1522 1524 1525 1527 1528 1529 1529 1530 1531 1532 1532 1533 1534 1534 1535 1535 1535 1535 1536 1536 1536 1536 1536 1537 1537 1537 1537 1537 1537
1502 1503 1504 1506 1507 1509 1510 1511 1513 1514 1515 1516 1517 1518 1520 1521 1523 1524 1525 1526 1527 1528 1529 1529 1530 1531 1531 1532 1533 1533 1533 1534 1534 1534 1535 1535 1535 1535 1536 1536 1536 1536 1536
1500 1501 1502 1504 1505 1506 1508 1509 1511 1512 1513 1514 1515 1516 1517 1518 1520 1521 1522 1523 1525 1525 1526 1527 1527 1528 1529 1530 1530 1531 1531 1531 1532 1532 1533 1533 1534 1534 1534 1534 1534 1535 1535
1497 1499 1500 1502 1503 1504 1506 1507 1508 1509 1510 1511 1513 1514 1515 1516 1517 1518 1519 1520 1522 1522 1523 1523 1524 1525 1526 1527 1527 1528 1528 1529 1529 1530 1530 1531 1531 1532 1532 1532 1532 1532 1533
1495 1496 1497 1498 1500 1501 1502 1503 1504 1505 1507 1509 1510 1512 1513 1514 1515 1516 1517 1517 1518 1519 1519 1520 1521 1522 1522 1523 1524 1525 1525 1526 1526 1527 1527 1528 1529 1529 1529 1530 1530 1530 1530
1492 1493 1494 1496 1497 1498 1499 1500 1501 1502 1504 1506 1507 1509 1510 1511 1512 1513 1513 1514 1515 1515 1516 1516 1517 1518 1519 1519 1520 1521 1521 1522 1523 1523 1524 1525 1525 1526 1526 1527 1527 1527 1527
1489 1490 1491 1492 1493 1495 1496 1496 1497 1499 1501 1502 1504 1505 1507 1508 1509 1509 1510 1510 1511 1512 1512 1513 1513 1513 1515 1515 1516 1517 1517 1518 1519 1520 1521 1521 1522 1522 1523 1523 1524 1524 1524
1486 1486 1487 1488 1489 1490 1492 1493 1494 1496 1497 1498 1500 1501 1503 1504 1505 1506 1507 1507 1507 1508 1508 1509 1509 1509 1510 1511 1512 1512 1513 1514 1515 1516 1516 1517 1517 1518 1519 1519 1520 1520 1520
1482 1483 1483 1484 1485 1487 1488 1489 1491 1492 1493 1495 1496 1497 1499 1500 1501 1502 1503 1503 1504 1504 1505 1505 1505 1506 1506 1507 1508 1508 1509 1510 1511 1511 1512 1513 1513 1514 1514 1515 1515 1516 1516
1479 1479 1480 1481 1482 1483 1484 1485 1487 1488 1489 1490 1492 1493 1495 1496 1497 1497 1498 1499 1500 1500 1501 1502 1502 1502 1503 1503 1504 1504 1505 1506 1507 1507 1507 1508 1509 1509 1510 1510 1511 1511 1511